Weather in Novoye Uryumovo

Russia / Chuvash Republic     55°23′00″N   47°24′37″E
temp.,
°C
wind,
m/s
gust,
m/s
humid.,
%
clouds,
%
prec.,
mm/h
press.,
hPa
HPBL,
m
18 may, tue
tue1800:00+18ene357099 2.2 101660
03:00+17e337260 2.2 101627
06:00+18e358029 0.0 1018164
09:00+23e56677 0.0 1017510
12:00+26ese55575 0.0 1017998
15:00+27ese55525 0.0 10171346
18:00+24ese48695 0.0 1016247
21:00+19e411795 0.0 1017201
19 may, wed
wed1900:00+17ese413775 0.0 1017261
03:00+16ese513735 0.0 1017249
06:00+17ese613745 0.0 1017356
09:00+21ese710615 0.0 1017631
12:00+24ese89520 0.0 10171004
15:00+25ese79520 0.0 10161097
18:00+22ese511620 0.0 1016368
21:00+18ese513730 0.0 1016241
20 may, thu
thu2000:00+17ese515741 0.0 1016316
03:00+15ese5148211 0.0 1016299
06:00+17se6147556 0.0 1016453
09:00+21se8126094 0.0 1016692
12:00+23se911530 0.0 10151325
15:00+24se711550 0.0 10141862
18:00+22se612615 0.0 1013500
21:00+17se4117328 0.0 1014251
21 may, fri
fri2100:00+14sse3587100 0.1 101490
03:00+13sse4895100 0.8 1014168
06:00+15s369091 1.0 1014286
09:00+19ssw696824 1.0 10141307
12:00+21sw7952100 0.2 10152120
15:00+21sw7105799 0.3 10152016
18:00+18sw7127628 1.1 1015863
21:00+14sw5128995 2.3 1017430
22 may, sat
sat2200:00+11sw4109077 0.0 1018339
03:00+10sw41091100 0.0 1020289
06:00+11wsw4787100 0.0 1022360
09:00+15wsw5771100 0.0 1023779
12:00+12sw3692100 2.1 1024387
15:00+14ssw2278100 3.1 1024400
18:00+14ne1284100 0.1 1023154
21:00+12e4892100 0.3 1021228